TIME,DELAY(SENSOR),PRES,T(CTD),SAL,OXYGEN,RAWTEMP,T(OPTODE),TCPHASE,FLUOR,BETA(BETA700),BETA(BETA412),BETA(BETA440),CDOM,C(CSC),ED(ED411.90),ED(ED443.80),ED(ED489.40),ED(ED554.70),LU(LU412.20),LU(LU443.80),LU(LU489.40),LU(LU555.00),COMP,TILTX,TILTX(TILTY),CHECK
1342279841,5799,496.8900146484375000,16.4468002319335940,36.2622985839843750,215.3155059814453000,221.3554992675781200,16.4322795867919920,33.2222595214843750,50,105,100,83,70,15414,2147477394,2147775030,2147562496,2147798061,2147313499,2147476425,2147717156,2148245604,240,7,13,53876
1342279944,5804,486.2099914550781000,16.5699005126953120,36.2862014770507800,218.7017974853515600,216.9942932128906200,16.5648803710937500,32.9791603088378900,50,106,101,83,68,15412,2147478052,2147770212,2147559424,2147800640,2147316516,2147475099,2147715913,2148243986,766,7,13,3368
1342280059,5802,474.6700134277344000,16.6774997711181640,36.3079986572265600,218.9510955810547000,213.4028930664062500,16.6740894317626950,32.9154205322265600,50,107,100,84,69,15406,2147480950,2147772653,2147559314,2147797778,2147316178,2147474761,2147712813,2148243419,1129,7,13,16290
1342280183,5802,463.2399902343750000,16.8078994750976560,36.3340988159179700,221.8905029296875000,209.1994934082031200,16.8019008636474600,32.7026100158691400,50,108,100,82,70,15414,2147480850,2147771465,2147560923,2147798957,2147314889,2147475977,2147713892,2148244763,746,7,13,63443
1342280340,5804,453.1400146484375000,16.9062995910644530,36.3541984558105500,224.4750976562500000,205.5933990478515600,16.9115695953369140,32.5185203552246100,50,106,99,84,68,15414,2147479003,2147773952,2147560941,2147798034,2147314422,2147475401,2147714550,2148246418,752,7,13,26410
1342280521,5805,441.6000061035156000,17.0704002380371100,36.3834991455078100,226.0485992431640600,200.5265045166015600,17.0656700134277340,32.3679885864257800,50,106,98,84,67,15410,2147483373,2147770203,2147559012,2147798052,2147309257,2147478537,2147714578,2148244836,411,7,13,34239
1342280660,5804,430.1499938964844000,17.2441997528076170,36.4225997924804700,231.0345001220703000,194.8311004638672000,17.2389106750488280,32.0400314331054700,50,106,99,84,67,15412,2147482998,2147767945,2147558226,2147799588,2147313764,2147485760,2147717385,2148243456,1015,7,13,22534
1342280796,5802,418.6199951171875000,17.3300991058349600,36.4393005371093750,232.3831939697265600,191.9651947021484400,17.3260993957519530,31.9342803955078120,50,106,99,83,67,15410,2147482706,2147770486,2147558345,2147797330,2147315309,2147480475,2147711369,2148242998,1029,7,12,12671
1342280911,5803,407.2099914550781000,17.4705009460449220,36.4660987854003900,234.0800018310547000,187.1809997558593800,17.4716606140136720,31.7863807678222660,50,107,99,83,67,15410,2147484077,2147767076,2147558016,2147798336,2147306550,2147480109,2147712118,2148242944,1089,7,13,58491
1342281026,5804,395.4800109863281000,17.5706005096435550,36.4866981506347660,236.3078002929687500,184.0755004882812500,17.5661602020263670,31.6365299224853500,50,107,99,84,68,15412,2147485284,2147769216,2147560804,2147796708,2147316269,2147481060,2147709622,2148242916,1057,7,13,58857
1342281131,5802,384.8099975585937500,17.6172008514404300,36.4935989379882800,236.1293029785156200,182.2276000976562500,17.6224002838134770,31.6198291778564450,50,106,99,83,66,15409,2147485814,2147771099,2147564178,2147798134,2147313956,2147476534,2147712393,2148242651,837,7,12,60110
1342281234,5802,374.1300048828125000,17.6965999603271500,36.5063018798828100,236.2765045166015600,179.8509979248047000,17.6947307586669920,31.5806598663330080,50,107,98,84,66,15407,2147487414,2147767478,2147561444,2147795401,2147318692,2147479186,2147712658,2148240877,1022,7,13,45738
1342281337,5800,363.3399963378906000,17.7469005584716800,36.5153999328613300,235.7966003417968800,178.0861968994140600,17.7484493255615230,31.5799007415771500,50,107,100,84,67,15408,2147488265,2147767012,2147561600,2147794166,2147315538,2147480173,2147710244,2148244598,1558,7,13,35080
1342281454,5803,352.3299865722656000,17.8097991943359380,36.5247993469238300,236.4331970214843800,176.1696014404297000,17.8067893981933600,31.5232791900634770,50,108,101,84,66,15408,2147483172,2147769005,2147564260,2147795501,2147314358,2147482102,2147713526,2148242194,1946,7,13,58178
1342281581,5802,341.7999877929687500,17.8577995300292970,36.5325012207031250,236.5971069335937500,174.5717926025390600,17.8554306030273440,31.4941902160644530,50,108,100,84,67,15405,2147485988,2147768704,2147566390,2147793874,2147314697,2147481563,2147717129,2148244827,2653,7,13,50626
1342281710,5804,330.8599853515625000,17.9069995880126950,36.5386009216308600,236.6215057373047000,172.9963989257812500,17.9033908843994140,31.4717292785644530,50,108,99,85,66,15406,2147486555,2147767533,2147570980,2147793810,2147316809,2147481792,2147716022,2148244416,2746,7,13,22465
1342281825,5803,320.7500000000000000,17.9419994354248050,36.5447998046875000,236.8186035156250000,171.8426055908203000,17.9385204315185550,31.4465904235839840,49,107,99,82,66,15408,2147487305,2147774198,2147575643,2147798363,2147312091,2147483264,2147719104,2148241883,2670,7,13,62414
1342281952,5804,309.2799987792969000,17.9687004089355470,36.5457992553710940,236.2021942138672000,170.9705047607422000,17.9650802612304700,31.4642906188964840,49,108,99,84,67,15406,2147486555,2147775497,2147580827,2147794057,2147305014,2147483520,2147724498,2148242925,2861,7,13,8808
1342282069,5805,298.6799926757812500,18.0102996826171880,36.5491981506347660,233.7550964355468800,169.6044006347656200,18.0066795349121100,31.5637702941894530,50,111,99,85,67,15403,2147488969,2147782829,2147593956,2147794331,2147315456,2147486884,2147735085,2148241426,3197,7,13,17719
1342282196,5804,287.2500000000000000,18.0834999084472660,36.5628013610839840,235.4828033447265600,167.1885986328125000,18.0802497863769530,31.4479103088378900,50,110,100,84,66,15405,2147489133,2147781796,2147599963,2147795492,2147313188,2147490660,2147739062,2148242880,2757,7,13,29642
1342282325,5805,275.8200073242187500,18.1189994812011720,36.5671005249023440,235.5923004150390600,165.8538055419922000,18.1208992004394530,31.4247207641601560,50,108,99,85,67,15401,2147488146,2147788169,2147628909,2147794477,2147314642,2147495570,2147750482,2148240832,3369,7,13,56235
1342282452,5802,264.9299926757812500,18.1870002746582030,36.5755004882812500,235.1656036376953000,163.6938018798828000,18.1866893768310550,31.4162807464599600,50,110,99,84,67,15403,2147489298,2147775552,2147583707,2147797595,2147314057,2147482971,2147725312,2148237824,552,7,12,23112
1342282591,5804,253.9100036621093800,18.2343006134033200,36.5802993774414060,234.6114959716797000,162.2727966308593800,18.2299804687500000,31.4237098693847660,50,110,99,85,66,15401,2147486610,2147807616,2147688338,2147793782,2147309010,2147508032,2147792786,2148244982,785,7,13,50098
1342282744,5803,242.3899993896484400,18.3059005737304700,36.5859985351562500,233.5858001708984400,159.9371948242187500,18.3011302947998050,31.4418201446533200,50,110,100,84,66,15398,2147491657,2147825481,2147738276,2147794459,2147315008,2147520630,2147819072,2148247158,1213,7,13,34593
1342282895,5803,231.4299926757812500,18.3780994415283200,36.5942001342773440,232.6672973632812500,157.4857025146484400,18.3758296966552730,31.4536094665527340,50,111,100,85,67,15399,2147493924,2147843355,2147797769,2147795757,2147313545,2147532288,2147855698,2148248832,805,7,12,45853
1342283026,5803,220.1100006103515600,18.4783992767334000,36.5965003967285160,231.2057952880859400,154.1958007812500000,18.4760894775390620,31.4805107116699220,50,111,99,85,66,15392,2147500224,2147882386,2147898980,2147794889,2147311899,2147557595,2147916169,2148250048,627,8,13,22122
1342283141,5804,208.6399993896484400,18.6074008941650400,36.6041984558105500,229.8348999023437500,150.1148071289062500,18.6004905700683600,31.4932708740234380,50,112,99,85,66,15395,2147507593,2147935899,2148025124,2147793216,2147313764,2147590793,2147987858,2148255286,780,8,12,6657
1342283244,5806,198.4400024414062500,18.7994995117187500,36.6029014587402340,230.3860931396484400,143.4680023193359400,18.8031692504882800,31.3770008087158200,50,113,99,84,67,15391,2147517970,2148014774,2148206208,2147795684,2147317577,2147639990,2148090843,2148261348,270,8,12,55622
1342283318,5802,191.5500030517578000,18.9416999816894530,36.6003990173339840,233.0478973388672000,138.9125061035156200,18.9421405792236330,31.1870098114013670,50,115,101,85,66,15391,2147523675,2147999734,2148153371,2147795995,2147324598,2147630683,2148061723,2148256731,642,7,13,63613
1342283373,5801,186.8699951171875000,19.0466995239257800,36.6021003723144500,236.0307006835937500,135.4906005859375000,19.0465602874755860,30.9991703033447270,50,110,100,86,66,15392,2147539830,2148115264,2148456137,2147797065,2147335131,2147707684,2148242294,2148267730,937,7,13,48905
1342283428,5803,182.4199981689453000,19.1819992065429700,36.6018981933593750,240.7337951660156200,131.6573028564453000,19.1635608673095700,30.7281208038330080,50,112,100,86,64,15394,2147545892,2148167488,2148554660,2147795492,2147332214,2147741586,2148302363,2148272484,929,8,12,52554
1342283483,5801,178.1699981689453000,19.2520008087158200,36.6064987182617200,245.8025054931640600,128.9942016601562500,19.2448692321777340,30.4618091583251950,50,113,101,86,64,15391,2147549796,2148159643,2148529874,2147794212,2147340763,2147741732,2148286902,2148271597,1057,7,13,41517
1342283538,5801,174.0000000000000000,19.3055000305175780,36.6072006225585940,250.1533966064453000,127.2441024780273400,19.2983207702636720,30.2448101043701170,50,113,100,85,64,15388,2147563702,2148202157,2148621494,2147793536,2147339072,2147757513,2148315894,2148272676,1276,7,12,34897
1342283593,5804,169.9400024414062500,19.3467006683349600,36.6086997985839840,253.6419067382812500,125.8531036376953100,19.3407993316650400,30.0739707946777340,51,116,101,86,64,15383,2147548580,2148114788,2148397156,2147793252,2147339702,2147731693,2148246162,2148271616,1477,7,12,31285
1342283671,5803,164.6199951171875000,19.3181991577148440,36.5951004028320300,256.9595031738281000,126.6509017944336000,19.3164291381835940,29.9413509368896500,52,114,102,85,64,15387,2147615396,2148435172,2149189586,2147797275,2147368576,2147946139,2148693632,2148293915,1761,7,13,31878
1342283726,5804,161.4400024414062500,19.3328990936279300,36.5960006713867200,257.5365905761719000,126.1398010253906200,19.3320407867431640,29.9101390838623050,53,116,102,86,63,15388,2147629019,2148503186,2149323364,2147796617,2147379410,2147990738,2148772260,2148300772,1750,7,13,41574
1342283805,5804,157.0500030517578000,19.3383007049560550,36.5952987670898440,257.9838867187500000,125.9000015258789000,19.3393707275390620,29.8878898620605470,55,115,100,86,64,15386,2147663981,2148616905,2149566930,2147798034,2147392960,2148074505,2148924672,2148306258,1971,7,12,21711
1342283872,5802,153.5200042724609400,19.3495998382568360,36.5971984863281250,258.3073120117187500,125.5420989990234400,19.3502998352050780,29.8696594238281250,57,113,101,85,63,15383,2147694189,2148731986,2149810770,2147802121,2147413814,2148151506,2149063899,2148312073,2398,7,13,19565
1342283953,5803,149.2599945068359400,19.3708000183105470,36.6018981933593750,258.7828979492187500,124.9385986328125000,19.3687305450439450,29.8418006896972660,58,115,99,86,64,15378,2147745270,2148888356,2150144822,2147803008,2147436617,2148259986,2149259099,2148326454,2741,7,12,38271
1342284032,5803,145.2700042724609400,19.3740005493164060,36.5994987487793000,259.0332946777344000,124.8433990478515600,19.3716392517089840,29.8299598693847660,63,119,101,87,64,15374,2147789577,2149022272,2150410962,2147805129,2147463094,2148347794,2149408164,2148338468,2539,7,12,34625
1342284111,5804,141.3099975585937500,19.3763008117675780,36.5980987548828100,259.2279968261719000,124.7931976318359400,19.3731803894042970,29.8209495544433600,64,119,101,87,63,15375,2147844864,2149204772,2150790857,2147808128,2147488630,2148460845,2149612827,2148349430,2922,7,13,30484
1342284190,5803,137.3999938964843800,19.3728008270263670,36.5960006713867200,258.9083862304687500,124.8643035888671900,19.3710098266601560,29.8352909088134770,69,118,102,86,62,15369,2147925732,2149424685,2151227154,2147812827,2147531913,2148595474,2149852068,2148365641,3222,7,13,8518
1342284271,5802,133.4400024414062500,19.3768005371093750,36.5942001342773440,258.9967956542969000,124.7472000122070300,19.3745803833007800,29.8301506042480470,75,123,101,87,62,15361,2147985408,2149547264,2151420114,2147816228,2147553206,2148621750,2149865536,2148369718,3277,7,13,49089
1342284350,5805,129.7200012207031200,19.3766002655029300,36.5924987792968750,259.2286071777344000,124.7537994384765600,19.3743801116943360,29.8203907012939450,82,126,102,87,63,15353,2148126528,2149970230,2152273590,2147832073,2147632000,2148908800,2150401901,2148404233,58,7,12,40782
1342284441,5804,125.3300018310546900,19.3841991424560550,36.5927009582519500,259.2260131835937500,124.5083007812500000,19.3818798065185550,29.8174591064453120,96,130,103,87,63,15340,2148315739,2150471369,2153227309,2147845970,2147712192,2149146038,2150814034,2148434093,139,7,12,17681
1342284520,5800,121.6399993896484400,19.3903999328613280,36.5918006896972660,259.2250061035156000,124.2994003295898400,19.3882598876953120,29.8146991729736330,106,134,103,88,64,15324,2148094409,2149633408,2151295725,2147826733,2147609645,2148640155,2149836352,2148373942,119,7,12,5807
1342284601,5806,117.8099975585937500,19.4001007080078120,36.5928993225097660,259.6155090332031000,123.9906997680664000,19.3976898193359380,29.7940807342529300,118,137,102,89,64,15313,2148582400,2151041929,2154074166,2147871506,2147810496,2149278354,2151029906,2148462528,352,7,12,17680
1342284668,5803,114.6100006103515600,19.3953990936279300,36.5895004272460940,259.5072937011719000,124.0690994262695300,19.3952903747558600,29.7997093200683600,123,145,104,88,64,15305,2147982656,2149110884,2150014811,2147815808,2147517668,2148183323,2148924973,2148322852,460,8,13,27093
1342284759,5803,110.3000030517578100,19.4141998291015620,36.5904006958007800,260.0732116699219000,123.5597991943359400,19.4108505249023440,29.7693691253662100,147,142,105,90,63,15283,2148524434,2150605522,2152785609,2147863478,2147754678,2148915757,2150286345,2148421293,440,7,13,51643
1342284838,5803,106.6100006103515600,19.4260005950927730,36.5901985168457000,261.3121032714844000,123.1294021606445300,19.4239997863769530,29.7119102478027340,150,142,105,90,65,15266,2150113398,2154803611,2160458889,2148008896,2148337782,2150616950,2153399862,2148676653,669,7,13,34055
1342284931,5806,102.3499984741211000,19.4461994171142580,36.5912017822265600,262.4757995605469000,122.4394989013671900,19.4450798034667970,29.6543693542480470,160,140,104,90,66,15253,2149919680,2153881892,2157981220,2147974354,2148209389,2150045522,2152171044,2148596379,696,7,13,47404
1342285010,5804,98.7200012207031200,19.4673004150390620,36.5909996032714840,264.0349121093750000,121.7798004150390600,19.4652404785156250,29.5811996459960940,171,144,103,90,64,15228,2152617801,2160441325,2168831213,2148221915,2149108580,2152369161,2156207241,2148958226,478,7,13,52509
1342285065,5808,96.1900024414062500,19.4890995025634770,36.5892982482910160,265.3057861328125000,121.0916976928711000,19.4862594604492200,29.5200004577636720,169,143,106,90,65,15220,2152471981,2159678866,2166704969,2148188525,2149032923,2151969408,2155314102,2148898121,29,7,12,28657
1342285120,5803,93.6999969482421900,19.5195999145507800,36.5909996032714840,266.7799072265625000,120.0174026489257800,19.5190906524658200,29.4460391998291000,130,139,105,90,67,15229,2149421037,2151984841,2153588160,2147894537,2147957449,2149026660,2150077622,2148448621,3248,7,13,55395
1342285175,5803,91.2200012207031200,19.5562992095947270,36.5912017822265600,268.6986999511719000,118.8939971923828100,19.5534191131591800,29.3536300659179700,118,136,103,88,66,15245,2150054683,2153256649,2155266843,2147937572,2148175616,2149507419,2150787748,2148510537,2790,7,13,3971
1342285232,5803,88.6800003051757800,19.5839004516601560,36.5918006896972660,270.2449951171875000,118.2856979370117200,19.5720100402832030,29.2834491729736330,120,136,105,89,66,15246,2158493504,2171777892,2183131949,2148742436,2150990848,2156250258,2161594249,2149540068,2347,7,12,50386
1342285287,5803,86.2500000000000000,19.6310997009277340,36.5914993286132800,271.7615966796875000,116.5721969604492200,19.6243896484375000,29.2010002136230470,104,139,107,90,65,15239,2152077613,2157010194,2159927149,2148077988,2148936155,2151169664,2153155556,2148737289,2324,7,13,62158
1342285342,5803,83.8700027465820300,19.6471996307373050,36.5909996032714840,272.9538879394531000,115.9331970214843800,19.6439208984375000,29.1454200744628900,107,139,106,90,65,15231,2161206464,2175532553,2186280731,2149005531,2152026889,2158047926,2163382089,2149764681,2234,7,13,51934
1342285397,5803,81.4300003051757800,19.6672992706298830,36.5923995971679700,274.2171936035156000,115.2335968017578100,19.6653099060058600,29.0867195129394530,105,140,107,90,65,15225,2163878902,2179693440,2190763584,2149255241,2153106176,2160038683,2165845421,2150028726,2153,7,13,28532
1342285452,5804,79.0599975585937500,19.7066001892089840,36.5928993225097660,275.1632995605469000,113.9434967041015600,19.7047500610351560,29.0329895019531250,99,142,106,90,63,15210,2166244662,2183120155,2194223186,2149492443,2154088475,2161722011,2167708717,2150245897,1818,7,13,60375
1342285507,5804,76.7699966430664000,19.7343006134033200,36.5927009582519500,276.1170043945312500,113.1379013061523400,19.7293891906738280,28.9854393005371100,97,143,105,91,63,15211,2169493403,2187870061,2199282724,2149832164,2155394980,2163912274,2170196461,2150530907,1609,7,13,36411
1342285564,5805,74.4199981689453100,19.7831001281738280,36.5915985107421900,277.1239013671875000,111.6323013305664000,19.7754306793212900,28.9272193908691400,96,146,107,91,62,15203,2172761069,2192190592,2203417252,2150173741,2156791689,2166208109,2172606043,2150802624,1628,7,13,50743
1342285619,5801,72.3899993896484400,19.8441009521484380,36.5932006835937500,277.9313964843750000,110.1858978271484400,19.8196697235107420,28.8775901794433600,94,142,107,92,62,15204,2176302692,2197102784,2208466898,2150534692,2158294272,2168591259,2175057892,2151101632,1575,7,12,44611
1342285674,5804,70.6299972534179700,19.9647998809814450,36.5942993164062500,278.4798889160156000,106.0336990356445300,19.9466991424560550,28.8040790557861330,92,141,109,90,64,15198,2179947620,2201998857,2213482715,2150966692,2159798592,2170949284,2177468909,2151396059,1696,7,13,49693
1342285729,5802,69.3199996948242200,20.0296993255615230,36.5951995849609400,280.0628967285156000,103.6804962158203100,20.0187206268310550,28.7135391235351560,93,144,108,90,61,15188,2182767213,2205545289,2216761280,2151238363,2161193910,2173106706,2179656740,2151644800,1500,7,13,61126
1342285844,5803,67.6699981689453100,20.0905990600585940,36.5965995788574200,282.1025085449219000,101.5540008544921900,20.0838203430175780,28.6090202331542970,84,139,106,91,63,15184,2189303926,2214609014,2226526381,2151920384,2163952173,2177330505,2183829458,2152159744,1205,7,13,14729
1342285966,5803,64.9700012207031200,20.2852001190185550,36.5959014892578100,283.2981872558594000,95.2472534179687500,20.2769603729248050,28.4849205017089840,80,141,108,90,60,15140,2198646016,2225175716,2235202221,2152826121,2168956864,2184376292,2190114276,2152897060,743,7,13,63557
1342286033,5802,62.8800010681152340,20.3542003631591800,36.5979995727539060,284.8045043945312500,92.6728973388671900,20.3558406829834000,28.3961296081542970,79,138,108,93,60,15162,2207595931,2235901622,2245504118,2153879387,2173066322,2189902445,2195099492,2153561115,420,7,12,21394
1342286088,5802,61.2099990844726560,20.4500999450683600,36.5998992919921900,284.9493103027344000,89.7794189453125000,20.4445304870605470,28.3547000885009770,75,140,108,93,60,15173,2205751552,2231258889,2238943798,2153686235,2172442176,2188124288,2192334409,2153246939,3382,7,13,28602
1342286155,5802,59.2799987792968750,20.6046009063720700,36.5992012023925800,285.1076049804687500,84.9172973632812500,20.5936203002929700,28.2885303497314450,72,145,107,91,62,15167,2176549842,2186498496,2186410752,2150081627,2160658733,2167899776,2168540050,2150500516,2913,7,13,21575
1342286233,5802,57.0800018310546900,20.8348999023437500,36.5948982238769500,284.7232055664062500,77.6102676391601600,20.8178405761718750,28.2124500274658200,71,142,108,91,58,15167,2232702555,2263877120,2271606217,2157242514,2187075428,2208536740,2212068525,2155747492,2560,7,13,13405
1342286300,5803,55.0600013732910160,20.9395999908447270,36.5970001220703100,283.6199035644531000,72.8198471069336000,20.9649600982666000,28.1946601867675780,69,143,108,92,61,15155,2236119003,2264931245,2270031981,2157525266,2189514523,2209924598,2211440905,2155727030,2781,6,13,61118
1342286453,5803,52.3300018310546900,21.3040008544921880,36.5872993469238300,282.6174926757812500,62.1860198974609400,21.2918395996093750,28.1011505126953120,68,147,111,94,63,15150,2265800301,2299784877,2305243867,2161889133,2207595008,2233915373,2234390948,2158745554,2496,7,13,23031
1342286541,5803,50.6699981689453100,21.4449005126953120,36.5763015747070300,281.8641052246094000,57.5320091247558600,21.4350605010986330,28.0722599029541000,63,141,107,93,58,15155,2185453979,2192348480,2189086125,2151016777,2167573458,2174068361,2171546185,2151013558,2547,6,12,42306
1342286595,5803,48.7799987792968750,21.4853000640869140,36.5718002319335940,281.4780883789062500,55.8709106445312500,21.4862003326416000,28.0664100646972660,63,140,108,91,58,15159,2229581467,2247001636,2245633234,2157284745,2193610779,2209887771,2206391771,2155419721,1572,6,12,37525
1342286649,5802,46.6399993896484400,21.5849990844726560,36.5625991821289060,280.9500122070312500,52.1957588195800800,21.5993804931640620,28.0412101745605470,64,140,109,92,58,15163,2291585334,2324318326,2329322304,2168629604,2229099529,2256249956,2250987602,2161878528,1212,6,13,34037
1342286692,5803,44.8499984741210940,21.7077999114990230,36.5546989440918000,280.5148010253906000,48.8231201171875000,21.7033100128173830,28.0163097381591800,63,140,109,91,62,15166,2304497188,2337213641,2341710802,2171862665,2240249993,2268949924,2261576402,2163653138,1075,7,13,16622
1342286746,5804,42.6800003051757800,21.8223991394042970,36.5547981262207000,279.7871093750000000,45.0129394531250000,21.8207798004150400,27.9971103668212900,62,139,108,93,59,15165,2314957156,2347142610,2351109522,2174648713,2249371602,2278431597,2269527872,2164980928,1030,7,12,2345
1342286800,5799,40.7299995422363300,21.9202995300292970,36.5452995300293000,279.5385131835937500,41.5578918457031250,21.9273490905761720,27.9641094207763670,59,141,107,94,56,15175,2308928320,2337152832,2339964745,2175147766,2251547245,2279052928,2268596982,2165365540,1079,6,13,60777
1342286865,5803,38.4900016784668000,22.0226001739501950,36.5435981750488300,279.1867980957031000,38.2662887573242200,22.0289402008056640,27.9371299743652340,58,138,108,93,63,15163,2338257892,2369287469,2373450761,2183480740,2269896658,2299451565,2285546285,2168478692,309,7,12,10856
1342286908,5807,36.5999984741210940,22.0645999908447270,36.5427017211914060,279.1005859375000000,36.6237792968750000,22.0796508789062500,27.9203891754150400,59,143,109,91,59,15156,2351149686,2381053942,2384824960,2189791515,2280884800,2310472411,2294315593,2170574454,3579,8,13,56775
1342286951,5804,34.8400001525878900,22.1875991821289060,36.5391006469726560,278.4101867675781000,33.0687103271484400,22.1894607543945300,27.9031600952148440,58,142,108,94,56,15159,2360094144,2388497252,2392219465,2192547620,2286946002,2314771510,2296461385,2171348260,3501,7,13,37280
1342287016,5802,32.7900009155273440,22.5303993225097660,36.5234985351562500,276.2094116210937500,22.3954391479492200,22.5195198059082030,27.8566093444824220,58,141,107,93,63,15141,2387837915,2416874203,2421378925,2201941403,2311921078,2342078518,2318998189,2175268470,3274,7,12,44114